Flag for Yemen Weather past 2 weeks in Ta'izz, Yemen

Now
63 °F

Clear.


Feels Like: 63 °F
Forecast: 68 / 83 °F
Wind: 3 mph from North

Location: Taiz

Current Time: Feb 28, 2015 at 2:02:45 AM

Latest Report: Feb 28, 2015 at 1:00 AM


Visibility: 4 mi

Pressure: 30.12 "Hg

Humidity: 83%

Dew point: 57 °F

Location of Ta'izzLocation

Historic Weather in Ta'izz — Graph

°F

Ta'izz temperature yesterday

Maximum temperature yesterday: 84 °F (at 12:00 PM)
Minimum temperature yesterday: 61 °F (at 3:00 AM)
Average temperature yesterday: 71 °F

Past Weeks' High & Low Weather Summary

 TemperatureHumidityPressure
High84 °F (Feb 27, 12:00 PM)100% (Feb 25, 3:00 AM)30.18 "Hg (Feb 25, 3:00 AM)
Low52 °F (Feb 14, 6:17 AM)8% (Feb 16, 3:00 PM)29.86 "Hg (Feb 17, 10:00 AM)
Average69 °F61%30.09 "Hg
* Reported Feb 13 6:00 AM — Feb 28 1:00 AM, Ta'izz, Weather by CustomWeather, © 2015

Note: Actual official high and low records may vary slightly from our data, if they occured in-between our weather recording intervals... More about our weather records

Advertising

Ta'izz weather history for previous 24 hours

 ConditionsComfort  
Time TempWeatherWind HumidityBarometerVisibility
1:00 AM
Sat, Feb 28
63 °FClear.3 mph83%30.12 "Hg4 mi
12:00 AM64 °FClear.3 mph83%30.15 "Hg4 mi
11:00 PM
Fri, Feb 27
64 °FClear.3 mph83%30.15 "Hg4 mi
10:00 PM66 °FPassing clouds.3 mph78%30.15 "Hg4 mi
9:00 PM66 °FClear.3 mph78%N/A4 mi
8:00 PM68 °FPassing clouds.8 mph73%30.12 "Hg4 mi
7:00 PM72 °FPassing clouds.5 mph65%30.09 "Hg4 mi
6:00 PM73 °FPassing clouds.3 mph61%30.07 "Hg5 mi
5:00 PM70 °FPassing clouds.12 mph60%30.07 "Hg5 mi
4:00 PM81 °FPassing clouds.14 mph26%30.04 "Hg4 mi
3:00 PM84 °FScattered clouds.13 mph29%30.01 "Hg4 mi
2:00 PM82 °FScattered clouds.2 mph30%30.04 "Hg4 mi
12:00 PM84 °FPassing clouds.13 mph33%30.09 "Hg4 mi
11:00 AM81 °FPassing clouds.5 mph37%30.12 "Hg4 mi
10:00 AM77 °FHaze.2 mph54%30.15 "Hg3 mi
9:00 AM72 °FFog.3 mph65%30.15 "Hg3 mi
8:00 AM68 °FHaze.3 mph64%30.12 "Hg3 mi
7:00 AM61 °FPassing clouds.3 mph77%30.12 "Hg4 mi
3:00 AM61 °FPassing clouds.5 mph83%30.07 "Hg4 mi
2:00 AM64 °FClear.3 mph73%30.09 "Hg4 mi
Weather by CustomWeather, © 2015

See weather overviewHow to use our weather pages